Location: Cerda�ola
(41.4919°N, 2.1403°E)
Time: 08:00:44
(UTC+00:00)

Lacrosse 4 Rocket - Visible Passes

Search period start: 11 August 2020 00:00
Search period end: 21 August 2020 00:00
Orbit: 542 x 616 km, 68.0° (Epoch: 10 August)

Date Brightness Start Highest point End Pass type
(mag) Time Alt. Az. Time Alt. Az. Time Alt. Az.
11 Aug 4.2 00:30:10 13° NW 00:30:10 13° NW 00:31:47 10° NNW visible
11 Aug 3.8 22:58:03 20° NNE 22:58:03 20° NNE 22:59:24 10° NNE visible
12 Aug 3.7 23:02:10 22° N 23:02:10 22° N 23:03:53 10° NNE visible
13 Aug 3.8 23:06:12 22° NNW 23:06:12 22° NNW 23:08:15 10° N visible
14 Aug 3.8 21:33:51 14° NE 21:33:51 14° NE 21:34:32 10° NE visible
14 Aug 4.0 23:10:06 19° NW 23:10:06 19° NW 23:12:27 10° N visible
15 Aug 3.2 21:37:37 23° NE 21:37:37 23° NE 21:39:17 10° NNE visible
15 Aug 4.3 23:13:51 13° NW 23:14:13 14° NW 23:16:22 10° NNW visible
16 Aug 2.5 21:41:09 39° NNE 21:41:09 39° NNE 21:43:54 10° NNE visible
17 Aug 3.5 20:08:05 13° ENE 20:08:05 13° ENE 20:08:49 10° ENE visible
17 Aug 2.4 21:44:16 44° WNW 21:44:22 44° WNW 21:48:24 10° NNE visible
18 Aug 2.3 20:10:17 27° ESE 20:10:30 27° ESE 20:14:04 10° NE visible
18 Aug 3.3 21:46:21 15° WSW 21:49:06 29° NW 21:52:46 10° N visible
19 Aug 4.7 04:32:10 10° NNE 04:33:43 12° NE 04:35:17 10° ENE visible
19 Aug 1.7 20:10:58 10° S 20:15:01 43° ESE 20:19:01 10° NE visible
19 Aug 4.0 21:50:43 10° W 21:53:52 20° NW 21:56:59 10° N visible
20 Aug 4.4 04:35:51 10° N 04:38:35 17° NE 04:41:18 10° E visible
20 Aug 1.3 20:15:20 10° SSW 20:19:35 70° ESE 20:23:46 10° NNE visible
20 Aug 4.5 21:56:30 10° WNW 21:58:43 14° NW 22:00:54 10° NNW visible
